Location: Forest
(37.3641°N, 79.2902°W)
Time: 00:58:29
(UTC+00:00)

ACS3 Solar Sail - Pass Details

Date: 14 October 2024
Orbit: 961 x 1022 km, 97.5° (Epoch: 03 November)

Event Time Altitude Azimuth Distance (km) Brightness Sun altitude
Exits shadow 02:07:19 34° 286° (WNW) 1,626 3.2 -40.8°
Drops below altitude 10° 02:12:04 10° 330° (NNW) 2,833 4.7 -41.7°
Sets 02:14:50 0° 339° (NNW) 3,789 5.4 -42.2°
